#timestamp,LO_Frequency,Hit,StdDev 
1599350415.4,286047002.5,N
1599350435.2,286047000.7,N
1599350455.1,286046998.7,N
1599350456.0,286046998.7,N
1599350475.8,286046996.7,N
1599350495.7,286047000.7,N
1599350515.5,286046998.6,N
1599350535.3,286047000.3,N
1599350555.2,286047002.5,N
1599350575.9,286047002.2,N
1599350595.7,286047000.9,N
1599350615.6,286047000.2,N
1599350635.4,286047001.8,N
1599350655.3,286047000.1,N
1599350675.1,286046998.2,N
1599350676.0,286046998.2,N
1599350695.8,286046999.0,N
1599350715.7,286047001.1,N
1599350735.5,286046999.3,N
1599350755.3,286047000.8,N
1599350775.2,286046998.7,N
1599350795.0,286047000.5,N
1599350795.9,286047000.5,N
1599350815.8,286047000.8,N
1599350835.6,286046998.7,N
1599350855.4,286047001.1,N
1599350875.3,286047000.5,N
1599350895.1,286047002.2,N
1599350915.9,286046998.6,N
1599350935.7,286046996.9,N
1599350955.5,286047001.1,N
1599350975.4,286046999.5,N
1599350995.2,286046998.3,N
1599351015.0,286047000.9,N
1599351015.9,286047000.9,N
1599351035.8,286047000.0,N
1599351055.6,286047002.0,N
1599351075.5,286047001.9,N
1599351095.3,286047002.5,N
1599351115.1,286047000.2,N
1599351135.9,286047001.2,N
1599351155.7,286047002.2,N
1599351175.5,286047004.1,N
1599351195.4,286047001.9,N
1599351215.2,286047002.6,N
1599351235.1,286047001.8,N
1599351236.0,286047001.8,N
1599351255.8,286047000.7,N
1599351275.6,286046999.3,N
1599351295.5,286046997.8,N
1599351315.3,286046995.6,N
1599351335.2,286046995.1,N
1599351355.9,286046994.4,N
1599351375.7,286046996.0,N
1599351395.6,286046997.8,N
1599351415.4,286046995.9,N
1599351435.2,286046995.7,N
1599351455.1,286046997.7,N
1599351456.0,286046997.7,N
1599351475.8,286046998.4,N
1599351495.7,286047001.1,N
1599351515.5,286047001.0,N
1599351535.3,286046996.6,N
1599351555.2,286046998.4,N
1599351575.0,286046999.1,N
1599351575.9,286046999.1,N
1599351595.8,286046997.4,N
1599351615.6,286046996.6,N
1599351635.4,286046997.1,N
1599351655.3,286046999.0,N
1599351675.1,286046998.5,N
1599351695.8,286046997.2,N
1599351715.7,286046999.4,N
1599351735.5,286046996.8,N
1599351755.4,286046997.2,N
1599351775.2,286046998.8,N
1599351795.0,286047001.1,N
1599351795.9,286047001.1,N
1599351815.8,286047001.0,N
1599351835.6,286046998.4,N
1599351855.5,286046999.0,N
1599351875.3,286046999.6,N
1599351895.1,286046999.2,N
1599351915.9,286046998.2,N
1599351935.7,286046998.3,N
1599351955.5,286046999.6,N
1599351975.4,286046999.0,N
1599351995.2,286046999.0,N
1599352015.1,286046997.6,N
1599352016.0,286046997.6,N
1599352035.8,286046996.3,N
1599352055.6,286046991.7,Y
1599352075.5,286046993.4,P
1599352095.3,286046993.6,N
1599352115.2,286046995.9,N
1599352135.9,286046996.6,N
1599352155.7,286046999.2,N
1599352175.6,286046995.2,N
1599352195.4,286046996.5,N
1599352215.2,286046997.4,N
1599352235.1,286046996.5,N
1599352236.0,286046996.5,N
1599352255.8,286046994.9,Y
1599352275.7,286046998.4,P
1599352295.5,286047000.7,N
1599352315.3,286046999.1,N
1599352335.2,286046999.3,N
1599352355.0,286047001.0,N
1599352355.9,286047001.0,N
1599352375.8,286047004.4,N
1599352395.6,286047003.7,N
1599352415.4,286047000.6,N
1599352435.3,286046998.3,N
1599352455.1,286046998.1,N
1599352475.8,286047000.2,N
1599352495.7,286046998.5,N
1599352515.5,286047002.7,N
1599352535.4,286047001.1,N
1599352555.2,286046999.6,N
1599352575.0,286046998.4,N
1599352575.9,286046998.4,N
1599352595.8,286047000.8,N
1599352615.6,286046999.1,N
1599352635.4,286047000.2,N
1599352655.3,286047001.5,N
1599352675.1,286047003.8,N
1599352695.9,286047004.4,N
1599352715.7,286047002.3,N
1599352735.5,286047001.8,N
1599352755.4,286047003.4,N
1599352775.2,286047001.9,N
1599352795.0,286047005.5,N
1599352795.9,286047005.5,N
1599352815.8,286047005.2,N
1599352835.6,286047003.3,N
1599352855.5,286047001.3,N
1599352875.3,286047003.4,N
1599352895.1,286047005.8,N
1599352915.9,286047005.0,N
1599352935.7,286047004.6,N
1599352955.6,286047005.6,N
1599352975.4,286047003.3,N
1599352995.2,286047003.0,N
1599353015.1,286047003.0,N
1599353016.0,286047003.0,N
1599353035.8,286047005.3,N
1599353055.6,286047005.6,N
1599353075.5,286047005.5,N
1599353095.3,286047005.1,N
1599353115.2,286047005.6,N
1599353135.9,286047004.8,N
1599353155.7,286047005.9,Y
1599353175.6,286047002.2,P
1599353195.4,286047002.7,P
1599353215.3,286047000.5,N
1599353235.1,286047002.5,N
1599353236.0,286047002.5,N
1599353255.8,286047002.3,N
1599353275.7,286046998.4,N
1599353295.5,286046999.1,N
1599353315.3,286046996.9,N
1599353335.2,286046998.6,N
1599353355.0,286046999.4,N
1599353355.9,286046999.4,N
1599353375.8,286046998.2,N
1599353395.6,286046997.3,N
1599353415.4,286046996.0,N
1599353435.3,286046996.1,N
1599353455.1,286046994.9,N
1599353475.8,286046996.8,N
1599353495.7,286046996.2,N
1599353515.5,286046996.1,N
1599353535.4,286046997.1,N
1599353555.2,286046995.3,N
1599353575.0,286046995.6,N
1599353575.9,286046995.6,N
1599353595.8,286047001.2,N
1599353615.6,286046997.0,N
1599353635.4,286046997.4,N
1599353655.3,286046999.0,N
1599353675.1,286046998.6,N
1599353695.9,286046997.2,N
1599353715.7,286046997.4,N
1599353735.5,286046996.7,N
1599353755.4,286047001.1,N
1599353775.2,286047000.4,N
1599353795.1,286047001.2,N
1599353796.0,286047001.2,N
1599353815.8,286047001.2,N
1599353835.6,286046998.7,N
1599353855.5,286047000.1,N
1599353875.3,286047001.6,N
1599353895.1,286047001.3,N
1599353915.9,286047003.7,N
1599353935.7,286047002.4,N
1599353955.6,286047000.6,N
1599353975.4,286047000.6,N
1599353995.2,286047000.5,N
